Presure
149 115 207 156 139 136 139 135 138 135 145 140 154 148 146 147 135 134 124 143 144 135 140 112 111 109 100 149 95 90 99 95 98 103 102 102 98 102 96 124 101 96 97 169 99 95 149 148 150
198 173 173 149 145 140 113 141 143 138 141 143 143 145 149 155 154 154 134 147 152 149 117 108 151 142 97 102 159 103 104 91 102 99 101 102 98 99 102 98 97 101 96 102 93 91 95 97 101
211 188 205 206 145 127 144 143 141 144 145 143 141 142 142 141 148 143 150 145 112 141 113 120 98 99 89 114 125 154 102 102 90 92 95 97 99 98 95 96 92 97 97 94 104 131 94 180 94
84 207 205 208 212 198 148 185 148 144 141 145 142 128 145 143 153 156 135 151 148 118 152 143 159 102 103 101 85 114 101 95 103 99 95 96 98 92 100 101 97 93 90 110 111 94 96 109 112
177 181 121 209 178 204 204 152 179 181 148 149 148 147 105 144 150 147 153 123 159 145 128 107 144 145 118 129 118 123 105 90 103 103 100 99 90 98 96 104 107 105 98 101 107 105 91 91 95
90 194 179 131 201 206 203 197 105 161 153 150 146 149 150 143 152 158 153 125 161 115 156 122 161 108 98 139 107 140 123 132 120 99 101 102 98 106 97 108 100 93 102 105 102 107 97 97 93
84 82 87 146 172 193 208 192 201 103 134 159 152 151 150 154 146 148 108 147 147 162 162 134 149 105 116 117 155 100 112 99 116 164 100 103 101 105 98 108 103 100 95 93 100 104 98 100 94
83 191 83 93 93 102 184 200 205 129 212 200 159 160 159 152 153 148 154 124 136 157 126 116 140 153 131 100 102 96 96 152 139 98 96 101 109 102 108 95 108 103 100 100 103 100 99 101 90
82 89 175 91 203 131 173 181 165 174 191 213 189 173 161 159 157 158 156 115 133 124 152 113 124 147 168 158 126 126 138 114 156 144 116 103 109 101 106 104 104 95 89 91 95 98 90 103 92
232 133 148 128 100 143 152 178 90 189 191 188 144 174 185 164 157 156 142 159 133 154 140 134 168 141 140 165 137 160 155 161 146 98 101 105 120 106 130 97 101 105 95 98 96 94 97 122 152
262 230 163 191 80 190 102 115 111 181 185 194 183 205 198 199 178 173 167 169 160 133 136 169 161 160 161 167 161 156 158 161 128 112 110 169 163 170 95 159 103 96 151 102 102 95 90 141 150
259 262 159 207 84 89 137 89 163 90 94 184 192 197 199 200 133 213 177 194 126 129 134 167 165 170 170 172 147 155 161 113 167 168 156 105 117 107 109 108 162 151 154 82 88 174 196 118 112
247 174 256 110 205 84 171 95 97 192 177 171 185 186 187 189 193 201 211 223 194 180 192 189 173 176 165 163 162 162 160 156 123 101 135 110 142 106 146 130 106 168 101 109 81 79 78 126 98
241 248 253 252 125 202 190 86 95 119 92 176 87 183 185 173 177 186 197 217 217 189 183 184 180 187 168 174 175 177 137 155 165 165 126 139 169 134 143 135 145 112 97 122 122 83 79 91 75
231 237 78 87 251 202 201 214 181 139 95 95 101 154 177 175 181 182 185 203 223 110 191 197 181 188 186 184 177 165 170 173 132 173 177 155 172 168 166 169 177 77 94 184 78 81 87 89 96
387 211 242 231 244 244 182 203 206 109 93 189 115 92 180 166 171 178 181 182 202 214 215 193 196 198 184 181 183 182 183 190 188 184 174 80 188 109 177 76 122 93 85 81 87 84 109 118 117
345 378 232 149 236 246 201 173 178 154 155 209 104 93 101 194 143 177 151 180 186 196 214 210 202 192 140 193 190 192 198 196 75 152 186 145 91 79 95 95 79 88 89 112 190 186 186 175 162
345 336 302 235 241 236 251 202 84 168 214 193 121 131 77 93 162 96 109 181 181 187 197 214 145 210 182 194 193 195 195 109 83 74 86 169 85 81 95 92 93 97 194 184 183 181 175 167 172
335 341 338 267 236 66 71 76 79 169 166 199 207 88 97 102 208 161 72 182 181 180 88 90 122 204 202 200 202 81 185 197 144 121 90 90 183 96 96 184 190 104 183 180 174 184 170 162 141
312 328 339 352 249 236 244 211 77 181 131 205 207 207 199 165 75 82 88 88 88 155 90 90 93 110 117 94 82 109 86 92 95 99 100 97 100 100 126 190 190 177 178 181 171 175 164 168 166
328 317 327 332 352 250 236 227 239 177 157 194 202 185 191 156 154 190 86 96 96 96 96 94 94 88 95 102 101 101 102 102 102 98 103 141 144 188 190 178 176 180 173 167 176 165 171 162 189
343 324 322 333 331 322 248 211 239 206 192 171 203 193 189 171 194 187 124 75 94 93 94 96 103 99 95 174 180 192 173 104 130 112 187 188 188 178 173 178 173 174 156 145 163 163 152 175 183
327 323 332 322 345 334 273 257 232 245 201 190 189 204 195 169 74 192 193 196 173 176 127 95 186 186 198 198 193 191 191 188 185 179 179 187 173 180 173 173 172 151 140 152 163 168 173 177 171
332 316 314 333 327 335 341 265 234 241 232 186 175 198 184 192 200 190 183 197 189 178 175 173 169 163 170 170 168 181 183 174 172 171 174 171 169 172 161 156 154 148 161 150 189 170 172 182 158
333 335 320 314 331 335 348 334 230 238 228 173 195 204 209 179 177 167 182 147 185 184 172 173 181 175 169 168 175 176 172 173 177 177 173 164 156 154 153 154 162 148 159 173 174 173 179 170 145
326 331 325 330 318 327 358 393 242 237 236 206 191 203 203 205 135 156 190 184 184 173 184 173 169 170 170 180 176 171 170 172 168 157 153 153 139 146 161 157 184 170 173 173 181 201 134 148 193
329 323 230 329 331 320 345 392 376 158 230 217 210 187 209 200 180 195 184 194 191 190 186 186 167 163 171 166 168 166 152 150 152 153 154 150 140 157 133 174 164 174 175 191 195 198 144 181 234
355 345 335 329 337 328 337 285 230 232 234 219 229 237 201 140 186 139 181 156 133 135 170 161 142 146 150 152 153 153 156 158 154 154 152 127 164 168 150 173 161 180 195 164 194 194 200 236 270
357 359 363 335 341 341 342 375 348 258 153 229 209 210 161 189 199 165 143 143 153 152 152 150 150 152 152 113 152 154 160 162 171 171 169 206 143 160 161 176 190 162 195 192 195 225 238 248 249
275 363 365 358 345 349 365 362 344 337 287 211 226 237 212 214 147 165 197 156 152 151 151 153 141 155 158 161 162 142 171 196 200 188 134 172 174 175 193 170 193 193 194 221 248 245 252 227 252
Wind_Speed
58 34 67 51 44 48 48 45 40 36 39 35 44 37 36 36 33 33 36 30 30 30 28 21 21 21 18 25 12 7 12 10 9 7 5 3 7 2 4 17 4 3 6 26 5 6 27 27 25
63 60 60 47 51 52 32 51 45 39 40 40 38 37 34 39 37 36 34 33 32 32 28 23 29 27 16 18 26 18 18 11 11 8 7 5 6 4 0 3 4 5 1 6 4 4 7 9 13
65 65 66 65 52 49 57 54 47 46 45 41 40 38 36 35 35 36 36 36 28 33 23 30 18 18 15 23 26 28 16 15 12 11 9 7 6 4 5 5 6 2 3 5 9 22 6 34 6
21 68 67 62 58 63 59 63 55 50 45 44 43 43 40 38 40 41 38 38 37 30 36 32 33 21 21 19 9 27 18 13 16 12 12 9 7 10 6 6 6 8 10 14 24 9 9 18 22
63 62 44 60 60 63 63 64 64 61 54 51 49 48 23 42 41 38 40 37 41 39 33 26 31 30 26 35 25 33 20 13 15 14 13 11 12 9 9 12 14 14 12 12 20 21 13 11 13
34 65 58 32 61 65 64 62 24 65 62 56 49 51 50 45 44 48 42 38 41 26 42 31 38 22 19 34 24 27 32 34 20 15 15 16 15 15 11 15 13 14 13 15 14 22 18 23 18
31 21 19 48 65 67 64 54 63 20 44 63 59 55 51 51 45 45 24 41 42 45 44 37 37 27 29 33 34 16 23 15 26 37 14 16 16 18 16 19 12 14 17 19 17 17 22 22 22
27 65 17 23 21 21 65 64 63 32 58 62 64 64 59 52 51 47 48 35 42 44 34 32 36 38 40 23 24 18 17 36 30 17 16 18 25 18 23 18 20 17 16 18 20 19 23 26 24
19 35 64 19 78 45 62 63 50 57 64 56 69 68 61 59 56 54 49 30 41 36 41 32 35 39 42 39 34 35 34 25 40 32 26 22 27 21 23 19 20 19 23 24 24 24 26 30 27
96 48 46 39 29 44 52 63 20 68 67 69 49 43 64 59 56 55 49 50 40 46 43 42 47 40 41 42 37 42 42 41 37 19 23 26 31 19 30 17 21 23 23 24 25 27 30 35 38
98 91 67 75 18 81 35 33 24 65 66 67 59 61 58 58 61 63 59 57 52 42 43 52 45 43 43 44 44 42 41 43 31 34 24 43 44 45 18 46 23 21 45 28 30 30 31 39 40
92 95 69 83 23 29 50 23 57 20 18 68 65 60 54 54 43 52 60 59 41 41 45 51 48 49 49 48 41 45 45 27 47 46 45 28 39 24 33 30 51 46 49 25 29 48 50 35 37
92 58 95 31 84 32 66 30 27 70 69 60 62 59 57 56 56 55 52 50 57 56 56 57 53 55 44 43 44 47 47 48 34 25 43 34 42 30 47 45 34 53 31 36 32 32 31 43 45
93 93 94 95 45 86 76 17 27 39 26 60 21 61 58 55 58 56 53 49 51 57 57 56 55 56 50 53 52 53 42 50 53 51 36 43 52 37 42 52 49 37 33 44 42 35 33 48 28
90 93 20 24 95 84 80 82 64 53 32 30 29 50 56 55 60 57 52 50 48 28 56 56 56 56 58 58 54 49 53 55 41 53 55 47 54 54 55 57 58 30 38 57 36 41 51 53 58
47 80 94 94 93 91 68 70 76 29 18 67 40 21 60 57 57 56 53 49 49 49 52 55 56 56 57 56 56 56 56 56 57 57 52 24 55 38 56 30 45 39 43 43 52 46 57 61 62
52 53 94 57 93 95 77 62 63 48 50 74 36 17 26 67 43 57 45 51 49 51 49 52 55 57 40 56 57 55 54 55 20 45 55 44 30 29 38 40 39 47 49 55 57 56 55 52 57
44 64 79 93 92 91 92 76 15 63 78 68 34 43 18 22 51 28 29 52 48 48 49 48 34 54 49 55 55 54 54 30 28 21 32 50 36 37 43 46 50 55 60 58 57 56 55 58 59
39 52 65 100 89 6 9 11 11 68 67 75 72 21 30 35 64 53 18 52 48 46 26 27 32 50 52 53 52 25 49 53 38 42 39 41 55 48 51 60 59 62 58 58 56 58 58 61 56
39 44 55 61 94 89 90 78 15 71 46 74 72 70 71 53 20 26 31 33 34 42 32 32 36 38 38 36 30 32 35 40 44 47 48 49 52 55 59 58 59 58 59 59 59 60 63 65 67
38 43 49 63 64 97 90 89 91 65 52 66 70 67 65 51 48 59 28 43 42 42 40 38 38 33 41 47 47 48 49 50 51 51 56 56 57 58 58 56 58 60 60 61 62 63 66 66 72
28 43 47 53 66 85 95 77 89 82 70 59 73 68 65 55 64 61 33 24 37 30 38 45 53 48 45 46 47 48 50 57 56 59 55 57 57 56 57 59 60 61 60 49 65 66 57 71 73
28 33 43 51 52 70 97 93 85 85 78 65 63 71 65 54 20 59 58 58 46 45 55 35 47 47 46 47 47 48 50 52 53 52 54 56 57 59 60 63 63 52 46 63 68 69 73 73 62
24 34 36 41 52 62 72 92 81 78 74 67 61 72 59 62 65 58 53 57 53 47 45 45 43 43 42 43 46 49 50 51 53 54 54 56 59 62 61 58 58 54 68 66 74 72 70 77 62
13 26 39 39 43 51 60 79 69 73 80 64 72 74 74 56 47 44 48 45 50 52 47 46 47 43 44 48 51 51 53 54 56 57 58 60 59 59 58 61 69 64 69 75 73 75 80 74 66
6 15 25 37 41 42 43 48 71 74 77 79 70 74 65 66 44 47 54 53 50 45 47 44 45 47 51 55 54 55 55 56 58 58 57 58 53 49 70 70 75 72 75 76 82 83 63 66 80
12 10 23 25 34 43 38 36 56 47 75 80 76 55 69 62 48 56 49 54 52 51 51 53 49 51 54 55 57 59 58 56 59 61 62 54 47 70 63 75 71 79 81 84 82 84 66 77 86
7 12 18 20 25 36 35 38 69 72 75 70 77 76 64 41 50 42 44 42 49 50 50 53 53 54 56 57 59 61 64 66 66 65 59 60 75 70 57 81 72 85 86 73 85 86 87 86 61
20 7 9 17 23 27 31 34 51 75 41 76 68 66 48 54 57 47 48 50 50 53 56 57 57 58 60 50 62 66 69 71 75 75 75 85 64 74 77 85 88 73 88 88 89 88 84 65 67
64 16 4 11 19 23 31 39 48 53 63 65 72 76 59 62 48 48 49 56 58 57 59 61 50 66 68 70 71 52 74 84 85 80 63 82 83 85 88 79 89 89 90 92 87 77 68 67 66
Wind_Direction
245 238 239 233 237 238 240 237 235 230 243 236 247 244 240 240 232 229 220 241 241 231 240 222 222 219 213 259 215 214 213 203 203 199 207 200 175 90 159 312 62 72 44 269 344 0 285 282 278
239 238 238 231 238 240 238 240 238 233 237 238 240 244 244 248 246 243 229 243 247 244 221 218 253 250 208 221 270 221 217 214 216 203 211 223 196 183 90 155 119 25 339 5 304 317 341 338 333
235 237 235 239 230 240 239 242 239 237 237 235 235 234 236 232 242 236 241 240 220 236 223 223 216 215 205 235 237 268 224 224 228 232 224 222 238 246 236 218 247 238 248 258 272 283 302 266 294
236 234 235 235 235 235 237 232 241 239 235 235 235 222 238 235 247 248 229 243 241 225 249 239 256 226 228 229 236 227 230 223 239 231 235 237 238 242 274 272 250 263 270 280 326 265 274 327 322
236 236 233 233 233 234 234 236 235 236 238 237 235 237 228 231 241 236 247 225 248 239 232 226 245 248 241 239 245 241 239 240 247 250 250 251 251 254 251 299 307 316 284 292 322 316 280 269 266
240 232 235 235 233 236 234 232 218 235 237 237 234 235 238 228 243 246 245 225 251 235 249 230 259 238 239 246 245 268 248 252 261 250 254 257 259 273 264 269 276 264 291 309 298 308 306 307 283
249 245 248 235 234 234 232 228 231 212 237 236 237 237 237 239 232 236 228 236 236 251 252 234 253 236 246 242 264 249 254 251 256 281 255 266 264 275 252 294 274 275 272 277 287 296 281 281 278
251 229 240 242 238 243 229 227 228 222 230 233 235 236 237 238 238 236 245 231 231 247 237 234 244 256 244 246 248 247 252 271 274 262 259 263 267 276 281 258 291 288 272 280 292 283 288 288 286
254 250 224 227 227 237 231 228 229 229 230 232 232 236 237 238 239 240 242 239 234 234 244 237 243 251 265 262 254 254 265 265 273 278 269 272 270 273 281 281 282 268 279 279 286 284 279 292 281
229 230 222 224 231 224 231 229 214 229 230 233 234 234 237 239 240 241 231 244 242 249 239 239 259 253 253 264 259 266 268 273 272 266 271 273 277 270 283 271 280 287 274 282 281 281 282 289 295
225 225 224 222 237 229 244 232 226 230 234 234 234 232 236 239 241 245 247 248 248 242 244 256 256 258 260 265 265 266 272 273 271 267 273 284 283 286 267 284 286 272 288 282 288 281 284 291 293
221 222 228 221 222 245 235 227 224 213 218 234 235 236 233 238 240 240 245 246 249 248 246 256 256 260 263 265 261 266 270 270 277 279 279 282 278 285 287 285 287 288 291 286 279 300 302 301 301
219 218 220 220 221 242 226 239 231 226 230 234 235 237 236 237 241 244 241 238 247 252 250 253 259 263 262 263 263 265 266 266 273 280 275 279 283 287 286 286 287 291 282 285 283 287 290 292 283
218 218 218 218 228 224 226 185 232 223 227 227 212 235 235 235 241 243 245 242 240 250 254 255 259 258 264 268 270 269 269 268 272 273 279 281 281 282 284 284 288 289 283 290 291 291 297 284 311
222 219 249 229 217 223 225 223 222 228 235 244 248 241 234 233 239 242 244 244 243 245 251 250 259 259 261 264 268 267 270 273 278 277 279 278 282 283 286 289 292 289 283 299 293 290 285 286 286
209 223 218 221 218 218 223 222 223 214 222 229 241 228 236 235 240 243 245 246 246 244 244 253 254 254 263 267 268 269 272 272 273 276 279 273 283 279 287 294 289 281 280 285 281 290 286 289 290
212 206 221 223 220 217 221 218 222 220 223 225 241 234 241 236 239 242 243 247 250 249 245 247 252 257 260 262 266 268 268 269 275 275 278 279 281 283 284 285 284 280 282 291 297 299 303 295 298
205 208 211 220 218 219 217 220 181 225 221 226 232 238 254 229 237 241 240 246 249 252 252 250 254 252 257 260 263 266 268 268 271 285 277 279 280 281 289 283 285 290 293 296 298 300 296 296 301
213 210 209 214 218 233 271 266 244 224 228 223 224 234 256 252 231 242 262 246 249 253 264 269 266 254 258 261 263 274 268 270 278 276 282 282 283 292 291 287 289 288 293 295 292 301 296 297 291
218 216 213 211 216 217 216 217 237 221 233 220 222 223 229 231 248 249 252 252 256 254 262 267 272 271 271 278 274 271 275 285 285 287 287 290 292 290 289 288 290 290 293 296 293 296 298 300 303
214 217 215 214 213 215 216 216 216 219 221 222 222 228 232 238 240 239 241 258 260 264 268 271 275 268 273 275 278 282 283 284 285 287 291 285 282 284 286 287 288 292 290 292 294 297 299 304 306
211 212 213 211 214 215 215 217 216 218 221 223 224 226 229 234 229 234 251 253 266 269 274 279 271 278 281 267 269 268 273 287 285 287 279 281 284 284 284 287 286 289 299 291 297 301 302 304 306
210 211 213 211 211 216 214 214 215 213 220 223 227 227 228 235 288 236 238 240 246 249 264 266 263 263 262 263 266 269 270 272 275 276 279 284 281 287 284 285 287 298 283 302 298 299 302 305 306
211 217 218 215 213 214 215 212 214 211 212 222 228 227 227 228 230 233 238 241 245 250 253 255 258 260 267 270 268 271 272 272 272 274 280 278 279 282 285 293 293 283 295 293 301 301 302 307 295
227 219 219 218 219 219 219 216 212 209 213 223 224 227 228 231 237 241 240 246 244 246 250 257 262 264 265 266 270 271 271 275 279 280 278 277 286 293 297 287 291 290 291 297 298 302 304 302 292
253 223 227 225 225 222 228 221 208 209 212 220 225 227 226 229 236 238 237 241 244 248 253 256 258 262 263 269 271 269 271 275 273 278 284 289 281 290 289 292 295 294 295 298 301 305 290 289 308
299 262 228 225 225 219 223 220 209 223 211 217 223 230 228 229 238 235 244 245 251 253 256 259 254 254 266 261 265 266 277 282 283 285 288 290 285 288 280 292 293 295 297 300 301 304 295 300 310
325 267 245 232 216 216 218 221 204 207 210 217 219 223 230 238 240 240 246 250 255 259 250 261 266 268 269 271 273 275 276 277 284 287 284 276 287 289 286 292 289 297 299 292 302 303 304 308 307
29 9 238 232 217 211 213 201 198 207 237 214 220 224 234 236 238 241 248 252 250 252 255 261 265 268 270 271 276 277 274 276 278 279 285 290 279 287 288 293 295 289 300 300 302 303 305 302 306
28 41 81 206 211 205 197 187 194 204 210 221 220 219 230 235 242 247 252 247 252 257 261 263 275 266 267 268 271 281 274 281 283 285 274 287 287 289 293 289 296 297 298 301 301 301 303 303 303